Location: Clinton NY
(43.0598°N, 75.3602°W)
Time: 21:04:58
(UTC-04:00)

Amateur Radio Satellites - All Passes

Search period start: 28 March 2015 20:34
Search period end: 29 March 2015 20:34
Location: Clinton NY, 43.0598°N, 75.3602°W

Satellite Date Start Highest point End Downlink Frequencies (MHz)
Time Altitude Azimuth
AUBIESAT-1 28 Mar 20:35:33 20:36:58 11° 307° (NW) 20:38:09 437.475
PRISM 28 Mar 20:36:17 20:39:56 28° 291° (WNW) 20:43:28 437.425
BRITE-PL 28 Mar 20:36:53 20:41:39 89° 77° (ENE) 20:46:05 437.365/2234.400
BEESAT 2 28 Mar 20:37:11 20:40:53 31° 244° (WSW) 20:44:28 435.950
DELFI C3 28 Mar 20:40:39 20:42:03 12° 63° (ENE) 20:43:37 145.870
AAUSAT CUBESAT 2 28 Mar 20:52:42 20:56:37 41° 72° (ENE) 21:00:37 437.432
DX 1 28 Mar 20:54:30 20:54:54 10° 60° (ENE) 20:55:32 434.975-435.025
SEEDS 28 Mar 20:55:04 20:59:13 63° 75° (ENE) 21:03:26 437.485
CUBESAT XI-V 28 Mar 21:01:26 21:04:22 16° 296° (WNW) 21:07:08 437.345
CINEMA 3 28 Mar 21:07:38 21:11:34 41° 72° (ENE) 21:15:30 145.822/145.860
Oscar 11 28 Mar 21:11:31 21:15:22 33° 70° (ENE) 21:19:17 145.826/435.025
CUSAT 1 28 Mar 21:14:31 21:17:14 37° 97° (E) 21:19:42 437.405
BEESAT 3 28 Mar 21:17:43 21:18:45 11° 251° (WSW) 21:19:33 437.485
COMPASS 1 28 Mar 21:18:50 21:23:01 86° 262° (W) 21:27:16 437.405
FUNcube-1 28 Mar 21:21:09 21:24:14 21° 67° (ENE) 21:27:26 145.935
DOVE 4 28 Mar 21:21:23 21:25:45 70° 258° (WSW) 21:29:57 437.250
UWE-3 28 Mar 21:22:41 21:26:09 27° 69° (ENE) 21:29:43 435.000/436.395/437.385
CUBEBUG 2 28 Mar 21:25:34 21:29:20 35° 71° (ENE) 21:33:08 437.445
STRAND 1 28 Mar 21:26:45 21:30:35 21° 297° (WNW) 21:34:18 437.568
HO-68 28 Mar 21:28:12 21:35:12 55° 259° (W) 21:42:15 435.675
GOMX 1 28 Mar 21:28:44 21:32:59 39° 262° (W) 21:37:02 467.674
VELOX 1 28 Mar 21:30:21 21:31:19 11° 61° (ENE) 21:32:32 145.980
ZACube-1 28 Mar 21:33:10 21:36:42 28° 70° (ENE) 21:40:20 437.345
AISAT 28 Mar 21:33:52 21:35:33 12° 62° (ENE) 21:37:27 437.250
AIST 2 28 Mar 21:44:33 21:47:37 19° 248° (WSW) 21:50:33 435.215
CANX-2 28 Mar 21:46:55 21:50:33 27° 266° (W) 21:54:10 2200.000
50 SAT 28 Mar 21:52:48 21:55:05 16° 66° (ENE) 21:57:32 437.505
DANDE 28 Mar 21:58:26 22:01:31 56° 281° (W) 22:04:11 436.750
ESTCUBE 1 28 Mar 22:00:32 22:02:11 12° 61° (ENE) 22:04:03 437.505/2401.250
CUTE 1.7 + AOD 2 28 Mar 22:01:28 22:04:44 21° 268° (W) 22:07:56 437.475
DELFI C3 28 Mar 22:12:41 22:16:44 66° 260° (W) 22:20:49 145.870
UKube-1 28 Mar 22:17:07 22:21:26 69° 74° (ENE) 22:25:46 .
SO-50 28 Mar 22:17:18 22:18:17 10° 334° (NNW) 22:19:08 436.795
GONETS M04 28 Mar 22:19:26 22:25:38 20° 302° (WNW) 22:31:26
ISS 28 Mar 22:25:55 22:27:11 12° 132° (SE) 22:28:34 145.825
DX 1 28 Mar 22:26:10 22:30:32 89° 256° (WSW) 22:34:56 434.975-435.025
AAUSAT CUBESAT 2 28 Mar 22:29:42 22:32:31 17° 269° (W) 22:35:14 437.432
HUMSAT D 28 Mar 22:30:14 22:34:16 62° 75° (ENE) 22:38:21 437.325/437.525
PCSat 28 Mar 22:33:47 22:36:41 15° 35° (NE) 22:39:45 145.827
SEEDS 28 Mar 22:33:58 22:35:33 12° 273° (W) 22:36:54 437.485
RS-15 28 Mar 22:34:31 22:44:12 33° 332° (NNW) 22:54:02 29.354- 29.394
CINEMA 3 28 Mar 22:46:15 22:49:03 17° 269° (W) 22:51:42 145.822/145.860
Oscar 11 28 Mar 22:48:10 22:51:38 23° 267° (W) 22:55:03 145.826/435.025
FUNcube-1 28 Mar 22:56:40 23:00:26 33° 264° (W) 23:04:13 145.935
UWE-3 28 Mar 22:59:12 23:02:42 25° 266° (W) 23:06:10 435.000/436.395/437.385
VELOX 1 28 Mar 23:02:50 23:07:18 86° 255° (WSW) 23:11:46 145.980
CUBEBUG 2 28 Mar 23:03:06 23:06:12 20° 268° (W) 23:09:12 437.445
POPSAT HIP 1 28 Mar 23:03:25 23:05:39 14° 90° (E) 23:08:03 437.405
CUBEBUG 1 28 Mar 23:05:31 23:09:43 46° 72° (ENE) 23:13:57 437.445
UNISAT 6 28 Mar 23:06:28 23:10:34 32° 96° (E) 23:14:45 437.425
AISAT 28 Mar 23:07:11 23:11:38 76° 257° (WSW) 23:16:06 437.250
BUGSAT 1 28 Mar 23:08:29 23:08:58 10° 88° (E) 23:09:43 437.445
ZACube-1 28 Mar 23:09:41 23:13:07 24° 266° (W) 23:16:31 437.345
TISAT 1 28 Mar 23:12:53 23:14:41 13° 63° (ENE) 23:16:39 437.305
NANOSAT C BR1 28 Mar 23:13:49 23:16:44 19° 92° (E) 23:19:48 145.865
TIGRISAT 28 Mar 23:16:58 23:21:15 40° 98° (E) 23:25:38 435.000
POLYITAN 1 28 Mar 23:17:08 23:20:18 21° 93° (E) 23:23:35 437.675
SPROUT 28 Mar 23:19:15 23:22:03 18° 65° (ENE) 23:24:57 437.525
50 SAT 28 Mar 23:25:58 23:29:42 43° 262° (W) 23:33:29 437.505
ESTCUBE 1 28 Mar 23:33:55 23:38:29 80° 258° (WSW) 23:43:04 437.505/2401.250
ANTELSAT 28 Mar 23:46:40 23:51:16 85° 103° (ESE) 23:55:56 437.575/2403.000
QB50P1 28 Mar 23:54:12 23:58:21 52° 100° (E) 00:02:29 145.935-145.965
DUCHIFAT 1 28 Mar 23:56:31 00:00:39 54° 100° (E) 00:04:48 145.980
UKube-1 28 Mar 23:56:43 23:58:09 11° 272° (W) 23:59:20 .
ISS 28 Mar 23:59:56 00:03:11 86° 326° (NW) 00:06:27 145.825
QB50P2 29 Mar 00:08:42 00:12:57 78° 101° (E) 00:17:12 145.880/145.840
HUMSAT D 29 Mar 00:09:13 00:10:33 11° 272° (W) 00:11:39 437.325/437.525
YUBILEINY 29 Mar 00:14:18 00:21:58 33° 67° (ENE) 00:29:45 435.215
PCSat 29 Mar 00:15:47 00:21:14 69° 58° (ENE) 00:26:37 145.827
ITUPSAT 1 29 Mar 00:25:57 00:28:30 15° 62° (ENE) 00:31:15 437.325
POPSAT HIP 1 29 Mar 00:37:47 00:41:54 51° 287° (WNW) 00:46:00 437.405
BUGSAT 1 29 Mar 00:40:59 00:44:59 64° 286° (WNW) 00:48:58 437.445
CUBEBUG 1 29 Mar 00:43:21 00:46:22 17° 269° (W) 00:49:14 437.445
UNISAT 6 29 Mar 00:43:24 00:47:16 27° 292° (WNW) 00:51:07 437.425
TISAT 1 29 Mar 00:45:50 00:50:02 65° 259° (WSW) 00:54:14 437.305
NANOSAT C BR1 29 Mar 00:48:51 00:52:48 39° 289° (WNW) 00:56:43 145.865
POLYITAN 1 29 Mar 00:52:28 00:56:22 35° 290° (WNW) 01:00:13 437.675
RS-15 29 Mar 00:52:36 01:01:11 24° 6° (N) 01:10:05 29.354- 29.394
SPROUT 29 Mar 00:53:42 00:57:50 46° 261° (W) 01:01:59 437.525
TIGRISAT 29 Mar 00:54:16 00:57:48 22° 293° (WNW) 01:01:18 435.000
SWISSCUBE 29 Mar 01:11:52 01:16:22 42° 70° (ENE) 01:20:55 437.505
BEESAT 29 Mar 01:14:58 01:19:27 42° 70° (ENE) 01:24:00 436.000
ANTELSAT 29 Mar 01:25:49 01:27:30 12° 298° (WNW) 01:28:58 437.575/2403.000
QB50P1 29 Mar 01:31:19 01:33:52 15° 296° (WNW) 01:36:17 145.935-145.965
DUCHIFAT 1 29 Mar 01:33:40 01:36:07 15° 296° (WNW) 01:38:25 145.980
KKS-1 29 Mar 01:36:29 01:38:34 14° 62° (ENE) 01:40:51 437.445
ISS 29 Mar 01:37:17 01:39:57 22° 346° (NNW) 01:42:36 145.825
QB50P2 29 Mar 01:47:06 01:48:19 11° 298° (WNW) 01:49:20 145.880/145.840
PCSat 29 Mar 02:00:32 02:04:08 18° 254° (WSW) 02:07:31 145.827
ITUPSAT 1 29 Mar 02:01:05 02:05:53 71° 258° (WSW) 02:10:44 437.325
STARS 29 Mar 02:09:02 02:12:00 19° 65° (ENE) 02:15:05 437.465
YUBILEINY 29 Mar 02:10:45 02:19:22 59° 268° (W) 02:27:51 435.215
Oscar 19 29 Mar 02:19:04 02:24:08 53° 100° (E) 02:29:12 437.125/150
Gurwin Techsat 1B 29 Mar 02:30:09 02:33:40 18° 90° (E) 02:37:21 435.225
SWISSCUBE 29 Mar 02:50:40 02:54:26 22° 268° (W) 02:58:07 437.505
BEESAT 29 Mar 02:53:44 02:57:31 22° 268° (W) 03:01:11 436.000
RS-15 29 Mar 03:06:49 03:17:31 45° 38° (NE) 03:28:47 29.354- 29.394
KKS-1 29 Mar 03:10:20 03:14:44 67° 258° (WSW) 03:19:10 437.445
ISS 29 Mar 03:14:47 03:17:09 18° 6° (N) 03:19:31 145.825
O/OREOS (USA 219) 29 Mar 03:18:35 03:18:51 10° 98° (E) 03:19:25 437.305
SO-50 29 Mar 03:22:01 03:26:32 34° 46° (NE) 03:31:04 436.795
ITAMSAT 1 29 Mar 03:23:10 03:28:21 67° 102° (ESE) 03:33:30 435.822/435.867
HORYU 2 29 Mar 03:37:56 03:40:49 17° 91° (E) 03:43:50 437.375
STARS 29 Mar 03:43:58 03:48:11 45° 261° (W) 03:52:24 437.465
Oscar 19 29 Mar 03:59:16 04:03:10 21° 296° (WNW) 04:06:55 437.125/150
Gurwin Techsat 1B 29 Mar 04:08:53 04:14:07 60° 288° (WNW) 04:19:20 435.225
AUBIESAT-1 29 Mar 04:14:01 04:16:53 19° 58° (ENE) 04:20:03 437.475
M-CUBED/EXP-1 PRIME 29 Mar 04:37:01 04:40:41 34° 64° (ENE) 04:44:42 437.505
MOZHAYETS 4 29 Mar 04:41:09 04:45:42 62° 74° (ENE) 04:50:19
AO-7 29 Mar 04:48:33 04:56:31 50° 100° (E) 05:04:31 29.400- 29.500
AIST 1 29 Mar 04:50:24 04:54:49 83° 278° (W) 04:59:15
ISS 29 Mar 04:51:04 04:54:10 41° 25° (NNE) 04:57:15 145.825
O/OREOS (USA 219) 29 Mar 04:53:04 04:57:40 82° 292° (WNW) 05:02:18 437.305
JAS-2 29 Mar 04:58:53 05:06:32 57° 98° (E) 05:13:37 435.910
SO-50 29 Mar 05:02:35 05:07:08 36° 244° (WSW) 05:11:35 436.795
ITAMSAT 1 29 Mar 05:03:58 05:07:23 17° 298° (WNW) 05:10:36 435.822/435.867
HORYU 2 29 Mar 05:13:25 05:17:47 49° 288° (WNW) 05:22:08 437.375
RS-15 29 Mar 05:19:22 05:30:44 67° 243° (WSW) 05:42:33 29.354- 29.394
STRAND 1 29 Mar 05:28:23 05:30:05 12° 58° (ENE) 05:32:03 437.568
VERMONT LUNAR 29 Mar 05:44:42 05:47:02 18° 154° (SSE) 05:49:24 437.305
AUBIESAT-1 29 Mar 05:47:31 05:51:22 45° 257° (WSW) 05:55:35 437.475
PRISM 29 Mar 05:52:28 05:55:44 23° 67° (ENE) 05:59:06 437.425
M-CUBED/EXP-1 PRIME 29 Mar 06:12:32 06:15:44 22° 264° (W) 06:19:05 437.505
MOZHAYETS 4 29 Mar 06:20:57 06:23:27 14° 272° (W) 06:25:44
PHONESAT 2.4 29 Mar 06:21:32 06:23:45 16° 152° (SSE) 06:26:01 2401.200-2431.200
CUBESAT XI-V 29 Mar 06:26:49 06:31:29 63° 74° (ENE) 06:36:09 437.345
ISS 29 Mar 06:27:39 06:30:29 27° 222° (SW) 06:33:15 145.825
GONETS M04 29 Mar 06:27:40 06:36:09 50° 73° (ENE) 06:44:41
O/OREOS (USA 219) 29 Mar 06:36:19 06:37:57 11° 314° (NW) 06:39:24 437.305
AO-7 29 Mar 06:41:38 06:49:14 41° 299° (WNW) 06:56:44 29.400- 29.500
JAS-2 29 Mar 06:44:21 06:51:11 34° 298° (WNW) 06:57:31 435.910
STRAND 1 29 Mar 07:03:25 07:08:34 82° 75° (ENE) 07:13:45 437.568
CUTE-I 29 Mar 07:20:12 07:25:31 67° 101° (ESE) 07:30:48 437.470
Cubesat XI-IV 29 Mar 07:20:15 07:25:35 68° 101° (ESE) 07:30:53 437.490
VERMONT LUNAR 29 Mar 07:21:05 07:24:19 46° 170° (S) 07:27:34 437.305
PRISM 29 Mar 07:27:14 07:31:05 33° 263° (W) 07:34:55 437.425
RS-15 29 Mar 07:35:16 07:41:24 15° 261° (W) 07:46:37 29.354- 29.394
CUSAT 1 29 Mar 07:47:31 07:51:26 40° 77° (ENE) 07:56:36 437.405
PHONESAT 2.4 29 Mar 07:58:15 08:01:38 43° 167° (SSE) 08:05:00 2401.200-2431.200
CUBESAT XI-V 29 Mar 08:06:47 08:09:25 14° 272° (W) 08:11:50 437.345
GONETS M04 29 Mar 08:24:53 08:32:51 38° 274° (W) 08:40:40
DANDE 29 Mar 08:34:37 08:38:32 90° 232° (SW) 08:43:49 436.750
BRITE-PL 29 Mar 08:40:55 08:44:13 22° 94° (E) 08:47:42 437.365/2234.400
SEEDS 29 Mar 08:42:00 08:42:06 10° 86° (E) 08:42:28 437.485
STRAND 1 29 Mar 08:46:19 08:48:32 12° 273° (W) 08:50:26 437.568
HO-68 29 Mar 08:55:10 09:01:08 28° 93° (E) 09:07:15 435.675
VERMONT LUNAR 29 Mar 08:58:34 09:01:50 51° 187° (S) 09:05:07 437.305
CUTE-I 29 Mar 09:01:32 09:05:07 18° 299° (WNW) 09:08:31 437.470
Cubesat XI-IV 29 Mar 09:01:38 09:05:12 18° 299° (WNW) 09:08:35 437.490
COMPASS 1 29 Mar 09:02:56 09:05:17 15° 89° (E) 09:07:48 437.405
DOVE 4 29 Mar 09:19:19 09:22:58 26° 95° (E) 09:26:48 437.250
GOMX 1 29 Mar 09:28:44 09:32:51 48° 99° (E) 09:37:12 467.674
CANX-2 29 Mar 09:30:36 09:34:47 47° 99° (E) 09:38:58 2200.000
CUSAT 1 29 Mar 09:30:55 09:34:13 20° 265° (W) 09:38:01 437.405
BEESAT 3 29 Mar 09:34:35 09:35:26 11° 109° (ESE) 09:36:31 437.485
PHONESAT 2.4 29 Mar 09:36:18 09:39:46 55° 185° (S) 09:43:15 2401.200-2431.200
CUTE 1.7 + AOD 2 29 Mar 09:44:31 09:48:49 62° 100° (E) 09:53:05 437.475
DELFI C3 29 Mar 09:52:43 09:55:13 16° 90° (E) 09:57:50 145.870
POPSAT HIP 1 29 Mar 09:58:04 10:00:03 14° 64° (ENE) 10:02:14 437.405
UKube-1 29 Mar 10:06:43 10:07:25 10° 87° (E) 10:08:23 .
UNISAT 6 29 Mar 10:06:52 10:10:36 31° 69° (ENE) 10:14:26 437.425
NANOSAT C BR1 29 Mar 10:08:02 10:10:43 17° 65° (ENE) 10:13:30 145.865
AAUSAT CUBESAT 2 29 Mar 10:10:09 10:14:24 71° 101° (E) 10:18:37 437.432
POLYITAN 1 29 Mar 10:11:44 10:14:39 19° 66° (ENE) 10:17:42 437.675
SEEDS 29 Mar 10:14:13 10:18:31 74° 284° (WNW) 10:22:47 437.485
DX 1 29 Mar 10:15:09 10:17:26 14° 90° (E) 10:19:55 434.975-435.025
TIGRISAT 29 Mar 10:17:02 10:20:57 38° 71° (ENE) 10:24:58 435.000
BRITE-PL 29 Mar 10:19:09 10:22:51 31° 290° (WNW) 10:26:40 437.365/2234.400
BEESAT 2 29 Mar 10:31:50 10:35:38 37° 117° (ESE) 10:39:31 435.950
Oscar 11 29 Mar 10:33:26 10:37:46 59° 100° (E) 10:42:05 145.826/435.025
VERMONT LUNAR 29 Mar 10:36:27 10:39:13 23° 203° (SSW) 10:41:58 437.305
COMPASS 1 29 Mar 10:37:12 10:41:20 50° 287° (WNW) 10:45:27 437.405
CINEMA 3 29 Mar 10:37:44 10:42:09 85° 283° (WNW) 10:46:44 145.822/145.860
HO-68 29 Mar 10:42:15 10:49:19 58° 292° (WNW) 10:56:19 435.675
FUNcube-1 29 Mar 10:43:29 10:47:35 39° 97° (E) 10:51:48 145.935
ANTELSAT 29 Mar 10:46:49 10:51:04 83° 76° (ENE) 10:55:25 437.575/2403.000
UWE-3 29 Mar 10:46:57 10:51:16 54° 100° (E) 10:55:42 435.000/436.395/437.385
QB50P1 29 Mar 10:47:55 10:51:56 44° 72° (ENE) 10:55:57 145.935-145.965
DUCHIFAT 1 29 Mar 10:49:55 10:53:55 45° 72° (ENE) 10:57:58 145.980
CUBEBUG 2 29 Mar 10:51:23 10:55:48 74° 102° (ESE) 11:00:21 437.445
VELOX 1 29 Mar 10:53:45 10:56:30 17° 91° (E) 10:59:24 145.980
ZACube-1 29 Mar 10:56:08 11:00:27 55° 100° (E) 11:04:51 437.345
DOVE 4 29 Mar 10:57:01 11:00:46 29° 290° (WNW) 11:04:36 437.250
AISAT 29 Mar 10:58:03 11:01:09 19° 92° (E) 11:04:22 437.250
QB50P2 29 Mar 11:02:27 11:06:38 66° 75° (ENE) 11:10:51 145.880/145.840
50 SAT 29 Mar 11:03:19 11:06:23 21° 93° (E) 11:09:32 437.505
CANX-2 29 Mar 11:07:31 11:10:25 17° 294° (WNW) 11:13:09 2200.000
GOMX 1 29 Mar 11:08:02 11:10:46 16° 294° (WNW) 11:13:24 467.674
BEESAT 3 29 Mar 11:08:52 11:12:58 76° 306° (NW) 11:17:07 437.485
PHONESAT 2.4 29 Mar 11:14:43 11:17:50 28° 200° (SSW) 11:20:55 2401.200-2431.200
CUTE 1.7 + AOD 2 29 Mar 11:22:02 11:24:18 14° 296° (WNW) 11:26:24 437.475
ESTCUBE 1 29 Mar 11:26:40 11:29:56 20° 92° (E) 11:33:19 437.505/2401.250
DELFI C3 29 Mar 11:26:44 11:30:39 43° 288° (WNW) 11:34:32 145.870
POPSAT HIP 1 29 Mar 11:31:21 11:35:31 60° 259° (W) 11:39:43 437.405
BUGSAT 1 29 Mar 11:31:40 11:35:51 83° 257° (WSW) 11:40:00 437.445
UKube-1 29 Mar 11:39:50 11:44:10 73° 286° (WNW) 11:48:28 .
AIST 2 29 Mar 11:42:03 11:46:17 72° 121° (ESE) 11:50:35 435.215
NANOSAT C BR1 29 Mar 11:42:12 11:46:16 45° 261° (W) 11:50:20 145.865
UNISAT 6 29 Mar 11:43:56 11:47:27 24° 267° (W) 11:50:57 437.425
POLYITAN 1 29 Mar 11:46:22 11:50:21 40° 262° (W) 11:54:20 437.675
AAUSAT CUBESAT 2 29 Mar 11:47:52 11:49:32 12° 297° (WNW) 11:51:00 437.432
HUMSAT D 29 Mar 11:48:56 11:53:12 77° 283° (WNW) 11:57:29 437.325/437.525
DX 1 29 Mar 11:49:51 11:54:06 53° 288° (WNW) 11:58:18 434.975-435.025
TIGRISAT 29 Mar 11:54:46 11:57:55 19° 268° (W) 12:00:58 435.000
Oscar 19 29 Mar 12:01:37 12:03:20 12° 58° (ENE) 12:05:18 437.125/150
BEESAT 2 29 Mar 12:10:25 12:13:55 25° 315° (NW) 12:17:24 435.950
Oscar 11 29 Mar 12:11:03 12:13:32 15° 296° (WNW) 12:15:50 145.826/435.025
FUNcube-1 29 Mar 12:20:25 12:23:44 21° 293° (WNW) 12:26:59 145.935
UWE-3 29 Mar 12:24:42 12:27:28 16° 295° (WNW) 12:30:06 435.000/436.395/437.385
QB50P1 29 Mar 12:25:19 12:28:05 16° 269° (W) 12:30:43 145.935-145.965
DUCHIFAT 1 29 Mar 12:27:22 12:30:04 16° 270° (W) 12:32:36 145.980
VELOX 1 29 Mar 12:29:09 12:33:24 47° 288° (WNW) 12:37:37 145.980
CUBEBUG 1 29 Mar 12:29:34 12:33:56 83° 103° (ESE) 12:38:15 437.445
CUBEBUG 2 29 Mar 12:30:07 12:32:02 12° 297° (WNW) 12:33:46 437.445
TISAT 1 29 Mar 12:30:31 12:33:22 18° 92° (E) 12:36:20 437.305
HO-68 29 Mar 12:32:45 12:35:43 13° 311° (NW) 12:38:20 435.675
ZACube-1 29 Mar 12:33:47 12:36:27 16° 295° (WNW) 12:39:00 437.345
AISAT 29 Mar 12:33:49 12:37:59 41° 289° (WNW) 12:42:07 437.250
50 SAT 29 Mar 12:37:46 12:41:23 32° 290° (WNW) 12:44:58 437.505
SPROUT 29 Mar 12:39:41 12:43:21 27° 95° (E) 12:47:03 437.525
QB50P2 29 Mar 12:41:44 12:43:05 11° 272° (W) 12:44:12 145.880/145.840
BEESAT 3 29 Mar 12:49:57 12:51:47 12° 325° (NW) 12:53:31 437.485
ESTCUBE 1 29 Mar 13:02:46 13:07:03 41° 289° (WNW) 13:11:15 437.505/2401.250
ITAMSAT 1 29 Mar 13:05:21 13:08:21 16° 61° (ENE) 13:11:33 435.822/435.867
YUBILEINY 29 Mar 13:16:47 13:24:23 36° 86° (E) 13:32:13 435.215
AIST 2 29 Mar 13:22:30 13:25:24 17° 321° (NW) 13:28:14 435.215
O/OREOS (USA 219) 29 Mar 13:23:29 13:27:14 25° 56° (NE) 13:31:02 437.305
Oscar 19 29 Mar 13:36:51 13:41:58 84° 73° (ENE) 13:47:08 437.125/150
Gurwin Techsat 1B 29 Mar 13:51:50 13:56:27 32° 67° (ENE) 14:01:11 435.225
AO-7 29 Mar 14:00:03 14:04:58 18° 48° (NE) 14:10:12 29.400- 29.500
ITUPSAT 1 29 Mar 14:01:16 14:05:20 28° 94° (E) 14:09:27 437.325
TISAT 1 29 Mar 14:05:27 14:09:23 39° 289° (WNW) 14:13:17 437.305
CUBEBUG 1 29 Mar 14:08:35 14:09:43 11° 299° (WNW) 14:10:36 437.445
SPROUT 29 Mar 14:15:45 14:19:24 27° 291° (WNW) 14:22:59 437.525
HORYU 2 29 Mar 14:37:33 14:40:34 19° 64° (ENE) 14:43:43 437.375
ITAMSAT 1 29 Mar 14:42:05 14:47:18 75° 256° (WSW) 14:52:34 435.822/435.867
SWISSCUBE 29 Mar 14:48:42 14:53:32 90° 139° (SE) 14:58:18 437.505
BEESAT 29 Mar 14:51:40 14:56:30 89° 106° (ESE) 15:01:16 436.000
AIST 1 29 Mar 14:57:12 15:00:49 26° 72° (ENE) 15:04:27
PCSat 29 Mar 14:58:18 15:03:31 52° 115° (ESE) 15:08:48 145.827
KKS-1 29 Mar 15:01:12 15:04:35 22° 93° (E) 15:08:04 437.445
O/OREOS (USA 219) 29 Mar 15:02:36 15:06:47 36° 254° (WSW) 15:10:52 437.305
JAS-2 29 Mar 15:11:42 15:17:34 30° 61° (ENE) 15:24:02 435.910
YUBILEINY 29 Mar 15:12:23 15:20:58 53° 286° (WNW) 15:29:34 435.215
Oscar 19 29 Mar 15:20:06 15:22:06 12° 274° (W) 15:23:47 437.125/150
Gurwin Techsat 1B 29 Mar 15:31:34 15:36:24 35° 264° (W) 15:41:14 435.225
STARS 29 Mar 15:32:56 15:36:47 29° 95° (E) 15:40:41 437.465
ITUPSAT 1 29 Mar 15:38:57 15:43:17 34° 292° (WNW) 15:47:32 437.325
AO-7 29 Mar 15:48:16 15:56:30 71° 68° (ENE) 16:04:46 29.400- 29.500
HORYU 2 29 Mar 16:12:39 16:16:56 46° 261° (W) 16:21:13 437.375
SWISSCUBE 29 Mar 16:28:57 16:30:45 12° 300° (WNW) 16:32:18 437.505
BEESAT 29 Mar 16:31:50 16:33:42 12° 300° (WNW) 16:35:19 436.000
AIST 1 29 Mar 16:34:48 16:38:28 26° 270° (W) 16:42:01
MOZHAYETS 4 29 Mar 16:36:59 16:39:21 14° 88° (E) 16:41:56
KKS-1 29 Mar 16:37:16 16:41:23 37° 290° (WNW) 16:45:28 437.445
PCSat 29 Mar 16:42:36 16:47:15 27° 314° (NW) 16:51:50 145.827
JAS-2 29 Mar 16:55:16 17:02:06 62° 261° (W) 17:09:40 435.910
CUTE-I 29 Mar 17:05:30 17:08:52 18° 61° (ENE) 17:12:26 437.470
Cubesat XI-IV 29 Mar 17:05:38 17:09:04 18° 61° (ENE) 17:12:41 437.490
STARS 29 Mar 17:09:27 17:13:11 27° 292° (WNW) 17:16:52 437.465
YUBILEINY 29 Mar 17:18:31 17:20:35 11° 312° (NW) 17:21:58 435.215
AUBIESAT-1 29 Mar 17:29:02 17:31:34 15° 93° (E) 17:34:18 437.475
RS-15 29 Mar 17:37:34 17:43:22 17° 100° (E) 17:49:59 29.354- 29.394
AO-7 29 Mar 17:43:17 17:50:05 26° 268° (W) 17:56:37 29.400- 29.500
BEESAT 3 29 Mar 17:50:29 17:52:32 14° 36° (NE) 17:54:42 437.485
M-CUBED/EXP-1 PRIME 29 Mar 17:52:22 17:56:31 28° 99° (E) 18:00:38 437.505
MOZHAYETS 4 29 Mar 18:12:28 18:17:06 62° 286° (WNW) 18:21:40
CUBESAT XI-V 29 Mar 18:24:13 18:26:41 15° 88° (E) 18:29:20 437.345
AIST 2 29 Mar 18:26:30 18:27:50 11° 33° (NNE) 18:29:17 435.215
CUTE-I 29 Mar 18:43:06 18:48:27 70° 258° (WSW) 18:53:50 437.470
Cubesat XI-IV 29 Mar 18:43:20 18:48:41 69° 258° (WSW) 18:54:04 437.490
BEESAT 2 29 Mar 18:50:24 18:54:12 33° 48° (NE) 18:57:57 435.950
AUBIESAT-1 29 Mar 19:02:05 19:06:55 69° 290° (WNW) 19:11:38 437.475
PRISM 29 Mar 19:08:49 19:12:31 30° 96° (E) 19:16:13 437.425
STRAND 1 29 Mar 19:13:38 19:17:49 25° 93° (E) 19:22:03 437.568
SO-50 29 Mar 19:17:20 19:21:54 62° 120° (ESE) 19:26:38 436.795
HO-68 29 Mar 19:25:34 19:31:04 25° 58° (ENE) 19:36:45 435.675
M-CUBED/EXP-1 PRIME 29 Mar 19:26:57 19:31:26 37° 296° (WNW) 19:35:49 437.505
BEESAT 3 29 Mar 19:27:08 19:31:16 87° 56° (NE) 19:35:20 437.485
GONETS M04 29 Mar 19:29:42 19:38:01 54° 91° (E) 19:46:29
RS-15 29 Mar 19:43:13 19:54:01 76° 120° (ESE) 20:05:06 29.354- 29.394
BRITE-PL 29 Mar 19:52:47 19:56:51 31° 71° (ENE) 20:00:46 437.365/2234.400
COMPASS 1 29 Mar 19:56:23 19:58:06 13° 63° (ENE) 20:00:01 437.405
CUBESAT XI-V 29 Mar 20:00:02 20:04:36 59° 287° (WNW) 20:09:08 437.345
AIST 2 29 Mar 20:03:06 20:07:21 62° 53° (NE) 20:11:31 435.215
CANX-2 29 Mar 20:24:35 20:28:30 38° 71° (ENE) 20:32:29 2200.000
DOVE 4 29 Mar 20:26:26 20:30:10 29° 70° (ENE) 20:33:49 437.250
